Retour au catalogue

STARLINK-35459

ActifCommunicationsVLEO
NORAD 65856·PAYLOAD·🇺🇸 United States

Lancé Oct 3, 2025 depuis Vandenberg Space Force Base

Loading…

Prochains Passages (prochaines 24 heures)

TLE

FraisSource: CelesTrak SupGP

Époque: Sep 14, 2026, 14:04 UTC

1 65856C 25223C   26257.58659722  .00050858  00000+0  15027-2 0  2579
2 65856  53.1563 133.0363 0001267  95.6894 109.1830 15.34363943    15

Suivez STARLINK-35459 en temps réel avec AllMySat

Download on the App Store